[[{"header":{"parameterUnit":"m.s-1","parameterCategory":1,"la1":30.2991,"la2":30.254,"lo1":-89.0895,"lo2":-89.0444,"dy":0.0017,"dx":0.0017,"nx":28,"ny":28,"refTime":"2024-03-01T03:00:00:Z","depth":0,"parameterNumber":2,"parameterNumberName":"U-component_of_WINDS"},"data":[0,0,0,0,0,0,0,0,0,0,0,0,0,0,0,0,0,0,0,0,0,0,0,0,0,0,0,0,0,0,0,0,0,0,0,0,0,0,0,0,0,0,0,0,0,0,0,0,0,0,0,0,0,0,0,0,0,0,-3.5443,-3.5443,0,-3.5466,-3.5467,-3.5467,-3.5412,-3.5411,-3.5409,-3.5407,-3.543,-3.5432,-3.5434,0,0,0,0,0,0,0,0,0,0,0,0,0,-3.5348,-3.535,-3.5443,-3.5443,-3.5443,-3.5466,-3.5467,-3.5467,-3.5413,-3.541,-3.5408,-3.5406,-3.5429,-3.5432,-3.5434,0,0,0,0,0,0,0,0,0,0,0,0,0,-3.5382,-3.535,-3.5442,-3.5419,-3.5417,-3.5466,-3.5467,-3.5467,-3.5413,-3.541,-3.5408,-3.5405,-3.5428,-3.5431,-3.5435,-3.5508,0,0,-3.5445,-3.5446,0,0,0,0,0,0,0,0,-3.538,-3.5385,-3.5422,-3.5421,-3.5419,-3.5434,-3.5441,-3.5481,-3.5414,-3.5414,-3.5407,-3.5404,-3.5433,-3.5436,-3.5446,-3.5509,-3.551,-3.5445,-3.5447,-3.5449,-3.545,0,0,0,0,0,0,0,-3.5378,-3.5384,-3.5452,-3.5423,-3.542,-3.5406,-3.5408,-3.5449,-3.5438,-3.5414,-3.541,-3.5414,-3.5432,-3.5443,-3.5446,-3.551,-3.5445,-3.5448,-3.545,-3.5451,-3.5634,-3.5637,0,0,0,0,0,0,-3.5379,-3.5383,-3.5451,-3.5453,-3.5393,-3.541,-3.5412,-3.5431,-3.5438,-3.5436,-3.5416,-3.5411,-3.5439,-3.5442,-3.5447,-3.5533,-3.5449,-3.5452,-3.5454,-3.5631,-3.5635,-3.5638,0,0,0,0,0,0,-3.5377,-3.5385,-3.545,-3.5417,-3.5424,-3.5415,-3.5436,-3.5433,-3.5445,-3.5439,-3.5437,-3.543,-3.5437,-3.5442,-3.5493,-3.5533,-3.5453,-3.5456,-3.5628,-3.5632,-3.5636,-3.5707,0,0,0,0,0,0,-3.5374,-3.5385,-3.5413,-3.5418,-3.5426,-3.5497,-3.5439,-3.5436,-3.5451,-3.5445,-3.5451,-3.545,-3.5435,-3.5488,-3.5496,-3.5536,-3.5459,-3.5624,-3.563,-3.5635,-3.5701,-3.5713,-3.5723,0,0,0,0,0,-3.5371,-3.5431,-3.5415,-3.5423,-3.5461,-3.5499,-3.5504,-3.5486,-3.5454,-3.5482,-3.5479,-3.545,-3.5527,-3.5494,-3.5503,-3.5544,-3.5622,-3.5628,-3.5634,-3.5696,-3.571,-3.5723,0,0,0,0,0,0,-3.5431,-3.5432,-3.5413,-3.5477,-3.5489,-3.549,-3.5525,-3.5502,-3.5523,-3.5516,-3.5493,-3.5495,-3.555,-3.5552,-3.5515,-3.5615,-3.5569,-3.5577,-3.5613,-3.5626,-3.5637,-3.5636,-3.5462,0,0,0,0,0,-3.5452,-3.5484,-3.5482,-3.5538,-3.5545,-3.5534,-3.555,-3.5536,-3.5547,-3.5551,-3.5551,-3.5563,-3.5589,-3.5608,-3.5632,-3.57,-3.5701,-3.5733,-3.5744,-3.5753,-3.5761,-3.5798,-3.5812,-3.5659,-3.5659,-3.5659,0,0,-3.5495,-3.5499,-3.5521,-3.5551,-3.5558,-3.5591,-3.5539,-3.5576,-3.5601,-3.5557,-3.5606,-3.5606,-3.5617,-3.5677,-3.5703,-3.568,-3.5804,-3.5761,-3.5769,-3.5772,-3.5806,-3.582,-3.5833,-3.5663,-3.5662,-3.5662,0,0,-3.5591,-3.5597,-3.5645,-3.5654,-3.5666,-3.5658,-3.567,-3.5675,-3.5674,-3.5722,-3.569,-3.5718,-3.5765,-3.5774,-3.5785,-3.5885,-3.5859,-3.5893,-3.5952,-3.5988,-3.6,-3.6011,-3.6047,-3.606,-3.5901,-3.5901,-3.5901,0,-3.5643,-3.5692,-3.5672,-3.5712,-3.5727,-3.5689,-3.5737,-3.5746,-3.5765,-3.5776,-3.5749,-3.5808,-3.5812,-3.5874,-3.5899,-3.5908,-3.5921,-3.5893,-3.6,-3.601,-3.602,-3.6055,-3.6068,-3.5905,-3.5904,-3.5904,-3.5904,0,-3.5756,-3.5791,-3.5828,-3.5849,-3.5867,-3.5911,-3.5897,-3.5917,-3.5901,-3.5896,-3.5946,-3.595,-3.5975,-3.5988,-3.5972,-3.6048,-3.6034,-3.6004,-3.5957,-3.6039,-3.6071,-3.6084,-3.5911,-3.5909,-3.5908,-3.5907,0,0,-3.5891,-3.59,-3.5915,-3.5924,-3.5934,-3.596,-3.6002,-3.6027,-3.6046,-3.606,-3.6095,-3.6135,-3.6108,-3.612,-3.6105,-3.6136,-3.6216,-3.6103,-3.6103,-3.6125,-3.6301,-3.6324,-3.634,-3.6198,-3.6201,-3.6203,-3.63,0,-3.5987,-3.606,-3.6043,-3.6116,-3.6148,-3.6112,-3.6149,-3.6159,-3.6155,-3.6181,-3.6176,-3.6206,-3.6167,-3.6174,-3.6204,-3.62,-3.6251,-3.6193,-3.6231,-3.6232,-3.6231,-3.6356,-3.6381,-3.6473,-3.6313,-3.6315,-3.6316,0,-3.6109,-3.6129,-3.6205,-3.6211,-3.6223,-3.6257,-3.6279,-3.6304,-3.6314,-3.6309,-3.6323,-3.6302,-3.6343,-3.6295,-3.6351,-3.6312,-3.6326,-3.6326,-3.6329,-3.6333,-3.628,-3.6365,-3.6502,-3.6517,-3.6336,-3.6334,-3.6333,0,-3.6202,-3.6247,-3.6299,-3.6307,-3.6315,-3.634,-3.6344,-3.6352,-3.6368,-3.6386,-3.6397,-3.6419,-3.6432,-3.645,-3.6435,-3.6401,-3.6494,-3.6445,-3.6491,-3.6492,-3.6514,-3.6513,-3.6656,-3.6521,-3.6521,-3.652,-3.652,0,-3.6311,-3.6359,-3.6341,-3.6373,-3.6425,-3.6405,-3.6457,-3.6457,-3.6464,-3.6495,-3.6464,-3.6494,-3.6471,-3.6499,-3.6487,-3.6536,-3.6541,-3.6539,-3.6535,-3.6542,-3.6543,-3.6552,-3.6546,-3.6524,-3.6523,-3.6523,-3.6522,0,-3.6424,-3.6414,-3.6468,-3.6471,-3.6472,-3.6511,-3.6513,-3.6543,-3.6536,-3.6576,-3.6584,-3.6574,-3.6604,-3.6591,-3.6622,-3.6614,-3.6678,-3.6665,-3.6675,-3.6672,-3.672,-3.6716,-3.6876,-3.6896,-3.6746,-3.6748,-3.6749,0,-3.6496,-3.6532,-3.6539,-3.6558,-3.6565,-3.6595,-3.6612,-3.6593,-3.6611,-3.6626,-3.6653,-3.6681,-3.6703,-3.6753,-3.6749,-3.6773,-3.6761,-3.6815,-3.6765,-3.6771,-3.6764,-3.6762,-3.6766,-3.6826,-3.6828,-3.6829,-3.683,0,-3.6624,-3.6617,-3.6643,-3.6667,-3.6688,-3.6706,-3.6721,-3.6738,-3.6719,-3.6741,-3.6772,-3.6789,-3.6822,-3.685,-3.6872,-3.6875,-3.685,-3.6846,-3.6859,-3.6867,-3.6872,-3.6871,-3.6704,-3.6843,-3.6842,-3.6841,-3.684,-3.684,-3.6719,-3.675,-3.676,-3.679,-3.6799,-3.6814,-3.6842,-3.684,-3.6866,-3.6892,-3.6878,-3.6915,-3.6924,-3.695,-3.6957,-3.6985,-3.6963,-3.6981,-3.6986,-3.6991,-3.6998,-3.6866,-3.6988,-3.6988,-3.6988,-3.6987,-3.6987,0,-3.6847,-3.6852,-3.6879,-3.6902,-3.6925,-3.69,-3.6915,-3.6936,-3.6969,-3.698,-3.7002,-3.7038,-3.7065,-3.7063,-3.7088,-3.7111,-3.71,-3.7118,-3.7117,-3.7118,-3.7015,-3.7002,-3.7126,-3.7126,-3.7126,-3.7126,-3.7126,-3.7126,-3.6917,-3.6968,-3.6962,-3.7018,-3.7021,-3.7058,-3.7069,-3.7082,-3.7091,-3.7133,-3.7156,-3.7154,-3.716,-3.7185,-3.7209,-3.7207,-3.7218,-3.7241,-3.7235,-3.7139,-3.7125,-3.7112,-3.71,-3.7243,-3.7243,-3.7336,-3.7337,-3.7338]},{"header":{"parameterUnit":"m.s-1","parameterCategory":1,"la1":30.2991,"la2":30.254,"lo1":-89.0895,"lo2":-89.0444,"dy":0.0017,"dx":0.0017,"nx":28,"ny":28,"refTime":"2024-03-01T03:00:00:Z","depth":0,"parameterNumber":3,"parameterNumberName":"V-component_of_WINDS"},"data":[0,0,0,0,0,0,0,0,0,0,0,0,0,0,0,0,0,0,0,0,0,0,0,0,0,0,0,0,0,0,0,0,0,0,0,0,0,0,0,0,0,0,0,0,0,0,0,0,0,0,0,0,0,0,0,0,0,0,-3.2438,-3.2439,0,-3.2529,-3.253,-3.2531,-3.2541,-3.254,-3.2539,-3.2538,-3.2629,-3.2632,-3.2635,0,0,0,0,0,0,0,0,0,0,0,0,0,-3.2268,-3.2272,-3.2438,-3.2439,-3.244,-3.2529,-3.253,-3.2531,-3.2541,-3.254,-3.2539,-3.2538,-3.2628,-3.2631,-3.2635,0,0,0,0,0,0,0,0,0,0,0,0,0,-3.2349,-3.2273,-3.2437,-3.2456,-3.2458,-3.2529,-3.253,-3.2532,-3.2541,-3.254,-3.2538,-3.2537,-3.2626,-3.2631,-3.2636,-3.2694,0,0,-3.2651,-3.2653,0,0,0,0,0,0,0,0,-3.2344,-3.2355,-3.2452,-3.2454,-3.2457,-3.2522,-3.2504,-3.2586,-3.2542,-3.251,-3.2538,-3.2536,-3.2594,-3.2602,-3.2622,-3.2698,-3.2702,-3.2651,-3.2654,-3.2656,-3.2658,0,0,0,0,0,0,0,-3.2339,-3.2351,-3.2474,-3.2453,-3.2457,-3.2458,-3.2468,-3.2519,-3.2558,-3.2512,-3.2513,-3.2524,-3.2595,-3.2617,-3.2624,-3.2703,-3.2651,-3.2656,-3.2659,-3.266,-3.2832,-3.2833,0,0,0,0,0,0,-3.233,-3.2347,-3.2471,-3.2476,-3.2396,-3.2462,-3.2473,-3.2503,-3.2558,-3.2565,-3.2525,-3.2524,-3.2609,-3.2618,-3.2627,-3.2699,-3.2656,-3.2661,-3.2664,-3.283,-3.2832,-3.2834,0,0,0,0,0,0,-3.2327,-3.2341,-3.2467,-3.2412,-3.2428,-3.2467,-3.25,-3.2505,-3.2527,-3.2568,-3.2574,-3.254,-3.2608,-3.262,-3.2677,-3.2702,-3.2663,-3.2668,-3.2828,-3.2831,-3.2833,-3.2842,0,0,0,0,0,0,-3.2322,-3.234,-3.2363,-3.2412,-3.2431,-3.2517,-3.2501,-3.2508,-3.2536,-3.2535,-3.2584,-3.259,-3.2608,-3.267,-3.2682,-3.2708,-3.2671,-3.2826,-3.2829,-3.2832,-3.284,-3.2845,-3.2849,0,0,0,0,0,-3.2316,-3.2362,-3.2364,-3.2379,-3.2461,-3.2518,-3.2529,-3.255,-3.2538,-3.2561,-3.2587,-3.2589,-3.2697,-3.2676,-3.269,-3.2717,-3.2825,-3.2828,-3.2832,-3.2838,-3.2844,-3.2849,0,0,0,0,0,0,-3.2313,-3.2368,-3.2372,-3.2435,-3.2472,-3.252,-3.255,-3.2555,-3.2595,-3.2593,-3.2616,-3.2627,-3.2683,-3.2706,-3.2681,-3.2776,-3.276,-3.2766,-3.276,-3.2766,-3.277,-3.2764,-3.2676,0,0,0,0,0,-3.232,-3.2363,-3.2409,-3.246,-3.2478,-3.2511,-3.2537,-3.255,-3.2588,-3.2603,-3.2634,-3.267,-3.2713,-3.274,-3.2781,-3.2843,-3.2854,-3.2869,-3.2873,-3.2877,-3.2882,-3.2917,-3.2924,-3.2845,-3.2845,-3.2845,0,0,-3.2335,-3.237,-3.2396,-3.246,-3.2491,-3.2534,-3.2524,-3.257,-3.2602,-3.261,-3.2667,-3.269,-3.2732,-3.2792,-3.282,-3.2812,-3.2906,-3.2881,-3.2884,-3.2888,-3.2921,-3.2929,-3.2935,-3.2848,-3.2847,-3.2847,0,0,-3.2383,-3.2415,-3.2461,-3.2492,-3.2538,-3.2559,-3.257,-3.2617,-3.2633,-3.269,-3.2697,-3.2735,-3.2808,-3.2838,-3.2862,-3.2922,-3.2925,-3.2935,-3.2958,-3.2992,-3.2998,-3.3003,-3.3025,-3.3032,-3.294,-3.294,-3.294,0,-3.2395,-3.2462,-3.2484,-3.2531,-3.2559,-3.2569,-3.2616,-3.2644,-3.27,-3.2719,-3.271,-3.2802,-3.2831,-3.2898,-3.2912,-3.2932,-3.2945,-3.293,-3.2995,-3.3001,-3.3007,-3.3028,-3.3036,-3.2941,-3.2941,-3.2941,-3.2941,0,-3.2475,-3.2521,-3.2552,-3.2608,-3.264,-3.2686,-3.2714,-3.2743,-3.2753,-3.2775,-3.2832,-3.2868,-3.2916,-3.2933,-3.2943,-3.3001,-3.2996,-3.2991,-3.2975,-3.3015,-3.3035,-3.3043,-3.2942,-3.2942,-3.2942,-3.2942,0,0,-3.2525,-3.2593,-3.2604,-3.263,-3.2681,-3.2716,-3.2762,-3.2811,-3.2836,-3.2874,-3.2913,-3.2974,-3.297,-3.2998,-3.3011,-3.304,-3.3086,-3.3032,-3.3033,-3.3041,-3.3153,-3.3157,-3.3166,-3.3088,-3.3089,-3.3091,-3.3149,0,-3.258,-3.2665,-3.2686,-3.2757,-3.28,-3.281,-3.285,-3.2885,-3.2907,-3.2945,-3.2968,-3.3011,-3.3002,-3.3019,-3.3048,-3.3074,-3.3108,-3.307,-3.3124,-3.3126,-3.3114,-3.3176,-3.318,-3.3234,-3.3157,-3.3159,-3.316,0,-3.2656,-3.2698,-3.2774,-3.282,-3.2838,-3.2874,-3.2921,-3.2957,-3.2997,-3.3011,-3.3042,-3.3052,-3.31,-3.3081,-3.3146,-3.312,-3.3143,-3.3158,-3.3161,-3.3167,-3.3146,-3.3184,-3.3252,-3.326,-3.3172,-3.3171,-3.317,0,-3.2686,-3.276,-3.2816,-3.2837,-3.2892,-3.2917,-3.2941,-3.298,-3.3008,-3.3047,-3.3066,-3.311,-3.3134,-3.3168,-3.3189,-3.3173,-3.3253,-3.3236,-3.3266,-3.3265,-3.3283,-3.3281,-3.3355,-3.3296,-3.3296,-3.3296,-3.3296,0,-3.2746,-3.2792,-3.283,-3.2864,-3.2916,-3.2939,-3.2989,-3.3013,-3.3047,-3.3085,-3.3096,-3.3131,-3.3157,-3.3196,-3.3213,-3.3265,-3.3275,-3.3287,-3.3291,-3.3287,-3.3285,-3.3303,-3.33,-3.3298,-3.3298,-3.3297,-3.3297,0,-3.2788,-3.2816,-3.2877,-3.2924,-3.2937,-3.2973,-3.3013,-3.3046,-3.3067,-3.3115,-3.3128,-3.3161,-3.3207,-3.3232,-3.3289,-3.3301,-3.3359,-3.336,-3.3346,-3.3348,-3.3376,-3.3374,-3.3464,-3.3477,-3.3409,-3.341,-3.341,0,-3.2825,-3.2861,-3.2913,-3.294,-3.2964,-3.3007,-3.3036,-3.3059,-3.3089,-3.3137,-3.3164,-3.3211,-3.325,-3.3322,-3.3351,-3.3395,-3.3398,-3.3427,-3.3405,-3.3399,-3.3399,-3.3397,-3.3401,-3.3431,-3.3431,-3.3432,-3.3432,0,-3.2888,-3.2899,-3.2941,-3.2988,-3.3022,-3.306,-3.3097,-3.3118,-3.3147,-3.3179,-3.3227,-3.3257,-3.3316,-3.3362,-3.3408,-3.3432,-3.3437,-3.3439,-3.3448,-3.3444,-3.3435,-3.3441,-3.3357,-3.3437,-3.3436,-3.3436,-3.3436,-3.3436,-3.2929,-3.2962,-3.3003,-3.3049,-3.308,-3.3114,-3.3147,-3.3174,-3.3214,-3.3265,-3.3276,-3.3326,-3.3364,-3.3427,-3.3452,-3.3491,-3.3485,-3.3498,-3.3502,-3.3505,-3.3506,-3.3428,-3.3499,-3.3499,-3.3499,-3.3499,-3.3499,0,-3.2992,-3.302,-3.3062,-3.3114,-3.315,-3.3153,-3.3194,-3.3223,-3.3268,-3.3304,-3.3342,-3.3397,-3.3442,-3.3474,-3.3519,-3.3545,-3.3548,-3.3556,-3.3554,-3.356,-3.3509,-3.3496,-3.3552,-3.3552,-3.3552,-3.3552,-3.3552,-3.3552,-3.303,-3.3086,-3.3102,-3.3173,-3.3199,-3.325,-3.3273,-3.3304,-3.3333,-3.3394,-3.3432,-3.3453,-3.3487,-3.3535,-3.3576,-3.3585,-3.3601,-3.3609,-3.3617,-3.3569,-3.3563,-3.3558,-3.3547,-3.3612,-3.3612,-3.3665,-3.3666,-3.3666]}]]